Regional Weather Roundup
Issued by NWS

Home | Current Version | Previous Version | Graphics & Text | Print | Product List | Glossary Off
Versions: 1 2 3 4 5 6 7 8 9 10 11 12 13 14 15 16 17 18 19 20 21 22 23 24 25 26 27 28 29 30 31 32 33 34 35 36 37 38 39 40 41 42 43 44 45 46 47 48 49 50

000
ASUS43 KTOP 290908
RWRKS

WEATHER ROUNDUP FOR KANSAS
NATIONAL WEATHER SERVICE GOODLAND KS
400 AM CDT WED MAR 29 2017

NOTE:  "FAIR" INDICATES FEW OR NO CLOUDS BELOW 12,000 FEET WITH NO
SIGNIFICANT WEATHER AND/OR OBSTRUCTIONS TO VISIBILITY.

KSZ001>006-013>018-027>032-041>047-291000-
NORTHWEST KANSAS

CITY           SKY/WX    TMP DP  RH WIND       PRES   REMARKS
GOODLAND       CLOUDY    38  38 100 N14       30.01R FOG     WCI  30
HAYS             N/A     45  44  97 N21G28    29.89R FOG
HILL CITY      LGT RAIN  43  43 100 N18       29.96R FOG
RUSSELL        CLOUDY    45  44  97 NE20G30   29.85F
$$

KSZ061>065-074>080-084>089-291000-
SOUTHWEST KANSAS

CITY           SKY/WX    TMP DP  RH WIND       PRES   REMARKS
DODGE CITY     LGT RAIN  44  43  96 N23G29    29.84F FOG
ELKHART          N/A     40  34  80 N16         N/A  WCI  31
GARDEN CITY    LGT RAIN  42  41  96 N20G30    29.87F
GREAT BEND     LGT RAIN  46  46 100 N18       29.82S VSB 3/4
LIBERAL        CLOUDY    45  39  81 N22       29.81F
PRATT          CLOUDY    46  45  97 N12G23    29.78R
$$

KSZ066>073-081>083-090>101-291000-
SOUTHEAST KANSAS

CITY           SKY/WX    TMP DP  RH WIND       PRES   REMARKS
CHANUTE        RAIN      55  53  93 E6        29.79R FOG
COFFEYVILLE    LGT RAIN  57  57 100 E5        29.75F
MEDICINE LODGE   N/A     50  48  93 S3        29.77R
NEWTON         CLOUDY    49  47  93 NE23G31   29.76S
PARSONS        LGT RAIN  57  55  93 VRB3      29.78S
WICHITA INTL   LGT RAIN  51  51 100 NE21G30   29.74F
WICHITA JABRA  LGT RAIN  50  49  96 NE17G25   29.74S
WICHITA MCCONL LGT RAIN  51  48  91 NE18      29.74R
WINFIELD       RAIN      52  50  93 NE8       29.73R
$$

KSZ007>012-019>026-033>040-048>060-102>105-291000-
NORTHEAST KANSAS

CITY           SKY/WX    TMP DP  RH WIND       PRES   REMARKS
CONCORDIA      RAIN      46  46 100 NE16G24   29.88F FOG
EMPORIA        LGT RAIN  50  50 100 NE21G26   29.79F
LAWRENCE       TSTM      51  51 100 CALM      29.95R VSB 1
MANHATTAN      RAIN      51  51 100 NE18      29.91S FOG
MARYSVILLE     HVY RAIN  46  46 100 NE14      29.93F
OLATHE IND     TSTM      51  49  92 VRB5      29.94R FOG
OLATHE EXE     TSTM      50  50 100 VRB6      29.91R FOG
SALINA         RAIN      51  49  92 E17G28    29.83F FOG
TOPEKA BILLARD HVY RAIN  51  51 100 NE21      29.88S FOG
TOPEKA FORBES  RAIN      52  50  93 NE16G23   29.88R FOG
$$



USA.gov is the U.S. government's official web portal to all federal, state and local government web resources and services.